User: anonymous   Login
Location: Ariel
(45.9570°N, 122.5700°W)
Time: 00:45:37
(UTC-07:00)
Language:

NANOSAT C BR1 - Orbit

View from above orbital plane
View from above orbital plane
View from above satellite
View from above satellite

Ground track
Ground track

The orbit data is extracted from the following two-line orbital elements,

1 40024U 14033Q   19114.36248392 +.00000256 +00000-0 +32563-4 0  9990
2 40024 097.9135 036.3389 0010923 232.2563 127.7665 14.89803238262680
Epoch (UTC): 24 April 2019 08:41:58
Eccentricity: 0.0010923
inclination: 97.9135°
perigee height: 591 km
apogee height: 606 km
right ascension of ascending node: 36.3389°
argument of perigee: 232.2563°
revolutions per day: 14.89803238
mean anomaly at epoch: 127.7665°
orbit number at epoch: 26268

The dashed part of the orbit path shows where the satellite is in the earth's shadow,  

DLR